Springfield, IL

2:48 PM CST on February 25, 2018 (GMT -0600)
Capital

Weather History for KSPI - October, 2011

Change the Weather History Date:

Sunday, October 9, 2011

  Actual Average Record
Temperature  
Mean Temperature 67 °F 57 °F  
Max Temperature 83 °F 69 °F 88 °F (1938)
Min Temperature 51 °F 46 °F 25 °F (2000)
Degree Days  
Heating Degree Days 0 9  
Month to date heating degree days 36 68  
Since 1 July heating degree days 152 149  
Cooling Degree Days 2 1  
Month to date cooling degree days 20 11  
Year to date cooling degree days 1441 1110  
Growing Degree Days 17 (Base 50)    
Moisture  
Dew Point 47 °F    
Average Humidity 58    
Maximum Humidity 89    
Minimum Humidity 26    
Precipitation  
Precipitation 0.00 in 0.10 in 1.20 in (2003)
Month to date precipitation 0.00 0.89  
Year to date precipitation 23.51 29.44  
Snow  
Snow 0.00 in 0.00 in 0.00 in ()
Month to date snowfall 0.0 0.0  
Since 1 July snowfall 0.0 0.0  
Since 1 September snowfall 0.0 0.0  
Snow Depth 0.00 in    
Sea Level Pressure  
Sea Level Pressure 30.25 in    
Wind  
Wind Speed 6 mph (SE)    
Max Wind Speed 16 mph    
Max Gust Speed 20 mph    
Visibility 10 miles    
Events      
T = Trace of Precipitation, MM = Missing Value Source: NWS Daily Summary

Daily Weather History Graph

Daily Weather History Graph

Search for Another Location

Airport or City:

Trip Planner

Search our weather history database for the weather conditions in past years. The results will help you decide how hot, cold, wet, or windy it might be!

Date:

Astronomy

Oct. 09, 2011 Rise Set
Actual Time 7:02 AM CDT 6:28 PM CDT
Civil Twilight 6:35 AM CDT 6:55 PM CDT
Nautical Twilight 6:04 AM CDT 7:27 PM CDT
Astronomical Twilight 5:32 AM CDT 7:58 PM CDT
Moon 5:05 PM CDT (10/9) 4:47 AM CDT (10/9)
Length of Visible Light 12h 20m
Length of Day
11h 26m
Waxing Gibbous, 95% of the Moon is Illuminated
Oct 9
Waxing Gibbous
Oct 11
Full
Oct 19
Last Quarter
Oct 26
New
Nov 2
First Quarter

Hourly Weather History & Observations

Time (CDT) Temp. Dew Point Humidity Pressure Visibility Wind Dir Wind Speed Gust Speed Precip Events Conditions
12:52 AM 59.0 °F 52.0 °F 78% 30.27 in 10.0 mi ESE 6.9 mph - N/A   Clear
1:52 AM 57.9 °F 51.1 °F 78% 30.28 in 10.0 mi ESE 4.6 mph - N/A   Clear
2:52 AM 57.9 °F 51.1 °F 78% 30.28 in 10.0 mi ESE 5.8 mph - N/A   Clear
3:52 AM 54.0 °F 48.9 °F 83% 30.28 in 10.0 mi East 4.6 mph - N/A   Clear
5:52 AM 53.1 °F 48.9 °F 86% 30.30 in 10.0 mi East 3.5 mph - N/A   Clear
6:52 AM 52.0 °F 48.0 °F 86% 30.31 in 10.0 mi East 3.5 mph - N/A   Clear
7:52 AM 55.9 °F 50.0 °F 80% 30.32 in 10.0 mi Calm Calm - N/A   Clear
8:52 AM 62.1 °F 51.1 °F 67% 30.33 in 10.0 mi ESE 5.8 mph - N/A   Clear
9:52 AM 69.1 °F 48.9 °F 49% 30.33 in 10.0 mi SSE 6.9 mph - N/A   Clear
10:52 AM 73.9 °F 50.0 °F 43% 30.32 in 10.0 mi East 5.8 mph - N/A   Clear
11:52 AM 77.0 °F 50.0 °F 39% 30.31 in 10.0 mi SSE 5.8 mph - N/A   Clear
12:52 PM 78.1 °F 48.0 °F 35% 30.28 in 10.0 mi Calm Calm - N/A   Clear
1:52 PM 80.6 °F 44.6 °F 28% 30.25 in 10.0 mi SE 11.5 mph 16.1 mph N/A   Clear
2:52 PM 82.0 °F 45.0 °F 27% 30.21 in 10.0 mi SE 8.1 mph - N/A   Clear
3:52 PM 82.0 °F 46.0 °F 28% 30.20 in 10.0 mi SE 13.8 mph 19.6 mph N/A   Clear
4:52 PM 81.0 °F 45.0 °F 28% 30.19 in 10.0 mi SSE 9.2 mph - N/A   Clear
5:52 PM 78.1 °F 44.1 °F 30% 30.18 in 10.0 mi SE 6.9 mph - N/A   Clear
6:52 PM 71.6 °F 44.6 °F 38% 30.18 in 10.0 mi ESE 4.6 mph - N/A   Clear
7:52 PM 66.0 °F 45.0 °F 47% 30.18 in 10.0 mi ESE 4.6 mph - N/A   Clear
8:52 PM 62.1 °F 46.9 °F 58% 30.19 in 10.0 mi ESE 4.6 mph - N/A   Clear
9:52 PM 64.0 °F 44.1 °F 48% 30.19 in 10.0 mi SE 8.1 mph - N/A   Clear
10:52 PM 61.0 °F 43.0 °F 52% 30.19 in 10.0 mi SE 5.8 mph - N/A   Clear
11:52 PM 57.9 °F 45.0 °F 62% 30.18 in 10.0 mi SE 8.1 mph - N/A   Clear